Satellite: NOAA-12 Catalog number: 21263 Epoch time: 13080.46166478 Element set: 761 Inclination: 098.7045 deg RA of node: 106.5124 deg Eccentricity: 0.0014956 Arg of perigee: 114.8278 deg Mean anomaly: 021.1597 deg Mean motion: 14.25552129 rev/day Decay rate: 3.4e-07 rev/day^2 Epoch rev: 13605 Checksum: 287
Satellite: MET-3/5 Catalog number: 21655 Epoch time: 13080.81128483 Element set: 647 Inclination: 082.5564 deg RA of node: 316.0409 deg Eccentricity: 0.0012992 Arg of perigee: 353.2291 deg Mean anomaly: 006.8654 deg Mean motion: 13.17046376 rev/day Decay rate: 2.3e-07 rev/day^2 Epoch rev: 3843 Checksum: 293
Satellite: MET-2/21 Catalog number: 22782 Epoch time: 13080.18198288 Element set: 692 Inclination: 082.5523 deg RA of node: 172.7409 deg Eccentricity: 0.0023887 Arg of perigee: 097.1672 deg Mean anomaly: 271.9550 deg Mean motion: 13.83702495 rev/day Decay rate: 4.0e-07 rev/day^2 Epoch rev: 98747 Checksum: 336
Satellite: OKEAN-4 Catalog number: 23317 Epoch time: 13080.84376421 Element set: 170 Inclination: 082.5378 deg RA of node: 131.5363 deg Eccentricity: 0.0022513 Arg of perigee: 151.8450 deg Mean anomaly: 330.0867 deg Mean motion: 14.84303992 rev/day Decay rate: 6.51e-06 rev/day^2 Epoch rev: 99598 Checksum: 299
Satellite: NOAA-14 Catalog number: 23455 Epoch time: 13080.46538404 Element set: 246 Inclination: 098.8044 deg RA of node: 166.2258 deg Eccentricity: 0.0008695 Arg of perigee: 243.1017 deg Mean anomaly: 183.7684 deg Mean motion: 14.13898018 rev/day Decay rate: -2.9e-07 rev/day^2 Epoch rev: 93997 Checksum: 331
Satellite: NOAA-15 Catalog number: 25338 Epoch time: 13080.47974953 Element set: 663 Inclination: 098.7197 deg RA of node: 071.1875 deg Eccentricity: 0.0010962 Arg of perigee: 029.3507 deg Mean anomaly: 122.8902 deg Mean motion: 14.25189811 rev/day Decay rate: 1.16e-06 rev/day^2 Epoch rev: 77234 Checksum: 321
Satellite: RESURS Catalog number: 25394 Epoch time: 13080.55818808 Element set: 332 Inclination: 098.3537 deg RA of node: 060.6371 deg Eccentricity: 0.0002415 Arg of perigee: 126.0348 deg Mean anomaly: 341.3994 deg Mean motion: 14.24324148 rev/day Decay rate: 4.0e-08 rev/day^2 Epoch rev: 76388 Checksum: 293
Satellite: FENGYUN1 Catalog number: 25730 Epoch time: 13080.50657682 Element set: 832 Inclination: 098.8721 deg RA of node: 041.1365 deg Eccentricity: 0.0022537 Arg of perigee: 295.2878 deg Mean anomaly: 175.5246 deg Mean motion: 14.10299359 rev/day Decay rate: 1.502e-05 rev/day^2 Epoch rev: 71368 Checksum: 311
Satellite: OKEAN-0 Catalog number: 25860 Epoch time: 13080.84243242 Element set: 898 Inclination: 097.9808 deg RA of node: 044.5181 deg Eccentricity: 0.0002111 Arg of perigee: 093.8994 deg Mean anomaly: 298.7093 deg Mean motion: 14.74512565 rev/day Decay rate: 4.99e-06 rev/day^2 Epoch rev: 73548 Checksum: 335
Satellite: NOAA-16 Catalog number: 26536 Epoch time: 13080.46415331 Element set: 140 Inclination: 099.0531 deg RA of node: 132.3185 deg Eccentricity: 0.0010582 Arg of perigee: 028.6495 deg Mean anomaly: 085.8012 deg Mean motion: 14.12851311 rev/day Decay rate: 7.3e-07 rev/day^2 Epoch rev: 64418 Checksum: 268
Satellite: NOAA-17 Catalog number: 27453 Epoch time: 13080.50334388 Element set: 66 Inclination: 098.3169 deg RA of node: 099.2189 deg Eccentricity: 0.0012585 Arg of perigee: 067.3478 deg Mean anomaly: 096.4371 deg Mean motion: 14.24544929 rev/day Decay rate: 1.12e-06 rev/day^2 Epoch rev: 55823 Checksum: 328
Satellite: NOAA-18 Catalog number: 28654 Epoch time: 13080.49802330 Element set: 546 Inclination: 099.0905 deg RA of node: 047.4994 deg Eccentricity: 0.0015411 Arg of perigee: 095.5568 deg Mean anomaly: 052.7227 deg Mean motion: 14.11786364 rev/day Decay rate: 5.0e-07 rev/day^2 Epoch rev: 40368 Checksum: 312
Satellite: NOAA-19 Catalog number: 33591 Epoch time: 13080.48979507 Element set: 735 Inclination: 098.8972 deg RA of node: 023.2789 deg Eccentricity: 0.0013329 Arg of perigee: 321.1357 deg Mean anomaly: 148.5886 deg Mean motion: 14.11473514 rev/day Decay rate: 8.6e-07 rev/day^2 Epoch rev: 21212 Checksum: 325
/EX SB KEPS @ AMSAT $ORB13080.M Orbital Elements 13080.MISC
HR AMSAT ORBITAL ELEMENTS FOR MANNED AND MISCELLANEOUS SATELLITES FROM WA5QGD FORT WORTH,TX March 21, 2013 BID: ORB13080.M TO ALL RADIO AMATEURS BT
Satellite: HUBBLE Catalog number: 20580 Epoch time: 13079.51642086 Element set: 199 Inclination: 028.4698 deg RA of node: 134.0096 deg Eccentricity: 0.0003464 Arg of perigee: 121.3460 deg Mean anomaly: 332.0673 deg Mean motion: 15.03384634 rev/day Decay rate: 2.005e-05 rev/day^2 Epoch rev: 5633 Checksum: 273
Satellite: ISS Catalog number: 25544 Epoch time: 13080.79204657 Element set: 454 Inclination: 051.6478 deg RA of node: 182.2316 deg Eccentricity: 0.0011718 Arg of perigee: 059.7125 deg Mean anomaly: 080.2831 deg Mean motion: 15.52100765 rev/day Decay rate: 2.4647e-04 rev/day^2 Epoch rev: 82113 Checksum: 285
Satellite: CO-58 Catalog number: 28895 Epoch time: 13080.84340368 Element set: 432 Inclination: 097.8816 deg RA of node: 300.3857 deg Eccentricity: 0.0017405 Arg of perigee: 001.6792 deg Mean anomaly: 054.4023 deg Mean motion: 14.61003601 rev/day Decay rate: 6.27e-06 rev/day^2 Epoch rev: 39419 Checksum: 300
Satellite: FALCON Catalog number: 30776 Epoch time: 13080.16562350 Element set: 574 Inclination: 035.4320 deg RA of node: 022.1236 deg Eccentricity: 0.0002954 Arg of perigee: 265.3795 deg Mean anomaly: 229.1608 deg Mean motion: 15.09834888 rev/day Decay rate: 4.591e-05 rev/day^2 Epoch rev: 33210 Checksum: 287
Satellite: MAST Catalog number: 31126 Epoch time: 13080.59074874 Element set: 709 Inclination: 097.8790 deg RA of node: 081.5302 deg Eccentricity: 0.0092257 Arg of perigee: 326.4963 deg Mean anomaly: 182.1022 deg Mean motion: 14.54476297 rev/day Decay rate: 4.32e-06 rev/day^2 Epoch rev: 31458 Checksum: 306
Satellite: CAPE1 Catalog number: 31130 Epoch time: 13080.54577750 Element set: 720 Inclination: 097.8950 deg RA of node: 077.8121 deg Eccentricity: 0.0099996 Arg of perigee: 341.8271 deg Mean anomaly: 017.9362 deg Mean motion: 14.53359543 rev/day Decay rate: 8.99e-06 rev/day^2 Epoch rev: 31404 Checksum: 319
Satellite: COMPASS Catalog number: 32787 Epoch time: 13080.85047192 Element set: 574 Inclination: 097.7623 deg RA of node: 141.6600 deg Eccentricity: 0.0014054 Arg of perigee: 225.6171 deg Mean anomaly: 246.7851 deg Mean motion: 14.85106968 rev/day Decay rate: 1.810e-05 rev/day^2 Epoch rev: 26500 Checksum: 293
Satellite: AAUSAT2 Catalog number: 32788 Epoch time: 13080.80894192 Element set: 562 Inclination: 097.7629 deg RA of node: 142.1808 deg Eccentricity: 0.0013654 Arg of perigee: 225.5822 deg Mean anomaly: 198.9458 deg Mean motion: 14.85534785 rev/day Decay rate: 1.638e-05 rev/day^2 Epoch rev: 26503 Checksum: 341
Satellite: DO-64 Catalog number: 32789 Epoch time: 13080.16520012 Element set: 587 Inclination: 097.7778 deg RA of node: 144.8321 deg Eccentricity: 0.0013653 Arg of perigee: 222.3634 deg Mean anomaly: 190.3965 deg Mean motion: 14.87822932 rev/day Decay rate: 3.483e-05 rev/day^2 Epoch rev: 26503 Checksum: 318
Satellite: CO-66 Catalog number: 32791 Epoch time: 13080.70494799 Element set: 558 Inclination: 097.7626 deg RA of node: 140.9893 deg Eccentricity: 0.0014485 Arg of perigee: 227.6300 deg Mean anomaly: 278.8110 deg Mean motion: 14.84320018 rev/day Decay rate: 1.867e-05 rev/day^2 Epoch rev: 26489 Checksum: 344
Satellite: RS-30 Catalog number: 32953 Epoch time: 13080.65117095 Element set: 696 Inclination: 082.5010 deg RA of node: 122.6316 deg Eccentricity: 0.0020071 Arg of perigee: 065.8812 deg Mean anomaly: 294.4370 deg Mean motion: 12.43032253 rev/day Decay rate: 1.0e-07 rev/day^2 Epoch rev: 21903 Checksum: 250
Satellite: METEOR-M Catalog number: 35865 Epoch time: 13080.68680554 Element set: 301 Inclination: 098.6131 deg RA of node: 135.2165 deg Eccentricity: 0.0002442 Arg of perigee: 351.4689 deg Mean anomaly: 008.6445 deg Mean motion: 14.21881433 rev/day Decay rate: -2.0e-07 rev/day^2 Epoch rev: 18203 Checksum: 274
Satellite: RS-38 Catalog number: 35869 Epoch time: 13080.66449392 Element set: 276 Inclination: 098.6075 deg RA of node: 135.1333 deg Eccentricity: 0.0004643 Arg of perigee: 340.0054 deg Mean anomaly: 020.0937 deg Mean motion: 14.22117318 rev/day Decay rate: 4.4e-07 rev/day^2 Epoch rev: 18205 Checksum: 285
Satellite: JUGNU Catalog number: 37839 Epoch time: 13080.40764344 Element set: 352 Inclination: 019.9610 deg RA of node: 118.6438 deg Eccentricity: 0.0019407 Arg of perigee: 036.3461 deg Mean anomaly: 081.7635 deg Mean motion: 14.12133568 rev/day Decay rate: 3.99e-06 rev/day^2 Epoch rev: 7447 Checksum: 301
Satellite: SRMSAT Catalog number: 37841 Epoch time: 13079.56772602 Element set: 354 Inclination: 019.9713 deg RA of node: 134.0367 deg Eccentricity: 0.0012124 Arg of perigee: 344.8480 deg Mean anomaly: 137.4700 deg Mean motion: 14.10207345 rev/day Decay rate: 3.87e-06 rev/day^2 Epoch rev: 7424 Checksum: 278
Satellite: RAX-2 Catalog number: 37853 Epoch time: 13080.81830883 Element set: 453 Inclination: 101.7153 deg RA of node: 254.0295 deg Eccentricity: 0.0238527 Arg of perigee: 277.7064 deg Mean anomaly: 195.1285 deg Mean motion: 14.82561347 rev/day Decay rate: 4.521e-05 rev/day^2 Epoch rev: 7549 Checksum: 314
Satellite: AUBIESAT Catalog number: 37854 Epoch time: 13080.81538256 Element set: 451 Inclination: 101.7190 deg RA of node: 254.7182 deg Eccentricity: 0.0238765 Arg of perigee: 276.5523 deg Mean anomaly: 198.7583 deg Mean motion: 14.83176147 rev/day Decay rate: 4.429e-05 rev/day^2 Epoch rev: 7550 Checksum: 323
